Year,Month,Day,Hour,Minute,Value (Times are PST for temperature in C)
2010,08,16,00,00,21.40
2010,08,16,00,01,21.40
2010,08,16,00,02,21.30
2010,08,16,00,03,21.30
2010,08,16,00,04,21.30
2010,08,16,00,05,21.30
2010,08,16,00,06,21.30
2010,08,16,00,07,21.30
2010,08,16,00,08,21.30
2010,08,16,00,09,21.30
2010,08,16,00,10,21.30
2010,08,16,00,11,21.20
2010,08,16,00,12,21.20
2010,08,16,00,13,21.20
2010,08,16,00,14,21.20
2010,08,16,00,15,21.20
2010,08,16,00,16,21.20
2010,08,16,00,17,21.20
2010,08,16,00,18,21.20
2010,08,16,00,19,21.20
2010,08,16,00,20,21.20
2010,08,16,00,21,21.20
2010,08,16,00,22,21.10
2010,08,16,00,23,21.10
2010,08,16,00,24,21.10
2010,08,16,00,25,21.10
2010,08,16,00,26,21.10
2010,08,16,00,27,21.00
2010,08,16,00,28,21.00
2010,08,16,00,29,21.00
2010,08,16,00,30,21.00
2010,08,16,00,31,20.90
2010,08,16,00,32,20.90
2010,08,16,00,33,20.90
2010,08,16,00,34,20.90
2010,08,16,00,35,20.90
2010,08,16,00,36,20.80
2010,08,16,00,37,20.80
2010,08,16,00,38,20.80
2010,08,16,00,39,20.80
2010,08,16,00,40,20.70
2010,08,16,00,41,20.70
2010,08,16,00,42,20.70
2010,08,16,00,43,20.70
2010,08,16,00,44,20.70
2010,08,16,00,45,20.70
2010,08,16,00,46,20.60
2010,08,16,00,47,20.60
2010,08,16,00,48,20.60
2010,08,16,00,49,20.60
2010,08,16,00,50,20.50
2010,08,16,00,51,20.50
2010,08,16,00,52,20.50
2010,08,16,00,53,20.50
2010,08,16,00,54,20.40
2010,08,16,00,55,20.40
2010,08,16,00,56,20.40
2010,08,16,00,57,20.40
2010,08,16,00,58,20.40
2010,08,16,00,59,20.30
2010,08,16,01,00,20.30
2010,08,16,01,01,20.30
2010,08,16,01,02,20.30
2010,08,16,01,03,20.30
2010,08,16,01,04,20.20
2010,08,16,01,05,20.20
2010,08,16,01,06,20.20
2010,08,16,01,07,20.20
2010,08,16,01,08,20.20
2010,08,16,01,09,20.10
2010,08,16,01,10,20.10
2010,08,16,01,11,20.10
2010,08,16,01,12,20.10
2010,08,16,01,13,20.00
2010,08,16,01,14,20.00
2010,08,16,01,15,20.00
2010,08,16,01,16,19.90
2010,08,16,01,17,19.90
2010,08,16,01,18,19.90
2010,08,16,01,19,19.90
2010,08,16,01,20,19.80
2010,08,16,01,21,19.80
2010,08,16,01,22,19.80
2010,08,16,01,23,19.80
2010,08,16,01,24,19.70
2010,08,16,01,25,19.70
2010,08,16,01,26,19.70
2010,08,16,01,27,19.70
2010,08,16,01,28,19.60
2010,08,16,01,29,19.60
2010,08,16,01,30,19.60
2010,08,16,01,31,19.60
2010,08,16,01,32,19.50
2010,08,16,01,33,19.50
2010,08,16,01,34,19.50
2010,08,16,01,35,19.40
2010,08,16,01,36,19.40
2010,08,16,01,37,19.50
2010,08,16,01,38,19.40
2010,08,16,01,39,19.50
2010,08,16,01,40,19.50
2010,08,16,01,41,19.50
2010,08,16,01,42,19.50
2010,08,16,01,43,19.50
2010,08,16,01,44,19.50
2010,08,16,01,45,19.50
2010,08,16,01,46,19.50
2010,08,16,01,47,19.50
2010,08,16,01,48,19.50
2010,08,16,01,49,19.40
2010,08,16,01,50,19.40
2010,08,16,01,51,19.40
2010,08,16,01,52,19.40
2010,08,16,01,53,19.40
2010,08,16,01,54,19.40
2010,08,16,01,55,19.40
2010,08,16,01,56,19.40
2010,08,16,01,57,19.30
2010,08,16,01,58,19.30
2010,08,16,01,59,19.30
2010,08,16,02,00,19.30
2010,08,16,02,01,19.20
2010,08,16,02,02,19.20
2010,08,16,02,03,19.20
2010,08,16,02,04,19.20
2010,08,16,02,05,19.10
2010,08,16,02,06,19.10
2010,08,16,02,07,19.10
2010,08,16,02,08,19.10
2010,08,16,02,09,19.10
2010,08,16,02,10,19.00
2010,08,16,02,11,19.00
2010,08,16,02,12,19.00
2010,08,16,02,13,19.00
2010,08,16,02,14,19.00
2010,08,16,02,15,19.00
2010,08,16,02,16,18.90
2010,08,16,02,17,18.90
2010,08,16,02,18,18.90
2010,08,16,02,19,18.90
2010,08,16,02,20,18.80
2010,08,16,02,21,18.80
2010,08,16,02,22,18.80
2010,08,16,02,23,18.80
2010,08,16,02,24,18.80
2010,08,16,02,25,18.80
2010,08,16,02,26,18.70
2010,08,16,02,27,18.70
2010,08,16,02,28,18.70
2010,08,16,02,29,18.70
2010,08,16,02,30,18.60
2010,08,16,02,31,18.60
2010,08,16,02,32,18.60
2010,08,16,02,33,18.60
2010,08,16,02,34,18.60
2010,08,16,02,35,18.60
2010,08,16,02,36,18.60
2010,08,16,02,37,18.50
2010,08,16,02,38,18.50
2010,08,16,02,39,18.50
2010,08,16,02,40,18.50
2010,08,16,02,41,18.50
2010,08,16,02,42,18.40
2010,08,16,02,43,18.40
2010,08,16,02,44,18.40
2010,08,16,02,45,18.40
2010,08,16,02,46,18.40
2010,08,16,02,47,18.30
2010,08,16,02,48,18.30
2010,08,16,02,49,18.30
2010,08,16,02,50,18.30
2010,08,16,02,51,18.20
2010,08,16,02,52,18.20
2010,08,16,02,53,18.20
2010,08,16,02,54,18.10
2010,08,16,02,55,18.10
2010,08,16,02,56,18.10
2010,08,16,02,57,18.10
2010,08,16,02,58,18.10
2010,08,16,02,59,18.00
2010,08,16,03,00,18.00
2010,08,16,03,01,18.00
2010,08,16,03,02,18.00
2010,08,16,03,03,17.90
2010,08,16,03,04,17.90
2010,08,16,03,05,17.90
2010,08,16,03,06,17.90
2010,08,16,03,07,17.90
2010,08,16,03,08,17.90
2010,08,16,03,09,17.80
2010,08,16,03,10,17.80
2010,08,16,03,11,17.80
2010,08,16,03,12,17.80
2010,08,16,03,13,17.80
2010,08,16,03,14,17.70
2010,08,16,03,15,17.70
2010,08,16,03,16,17.70
2010,08,16,03,17,17.70
2010,08,16,03,18,17.70
2010,08,16,03,19,17.70
2010,08,16,03,20,17.70
2010,08,16,03,21,17.70
2010,08,16,03,22,17.70
2010,08,16,03,23,17.70
2010,08,16,03,24,17.70
2010,08,16,03,25,17.70
2010,08,16,03,26,17.70
2010,08,16,03,27,17.70
2010,08,16,03,28,17.70
2010,08,16,03,29,17.70
2010,08,16,03,30,17.70
2010,08,16,03,31,17.70
2010,08,16,03,32,17.70
2010,08,16,03,33,17.70
2010,08,16,03,34,17.70
2010,08,16,03,35,17.70
2010,08,16,03,36,17.70
2010,08,16,03,37,17.60
2010,08,16,03,38,17.60
2010,08,16,03,39,17.60
2010,08,16,03,40,17.60
2010,08,16,03,41,17.60
2010,08,16,03,42,17.60
2010,08,16,03,43,17.60
2010,08,16,03,44,17.50
2010,08,16,03,45,17.50
2010,08,16,03,46,17.50
2010,08,16,03,47,17.50
2010,08,16,03,48,17.40
2010,08,16,03,49,17.40
2010,08,16,03,50,17.40
2010,08,16,03,51,17.40
2010,08,16,03,52,17.40
2010,08,16,03,53,17.40
2010,08,16,03,54,17.30
2010,08,16,03,55,17.30
2010,08,16,03,56,17.30
2010,08,16,03,57,17.30
2010,08,16,03,58,17.30
2010,08,16,03,59,17.30
2010,08,16,04,00,17.20
2010,08,16,04,01,17.20
2010,08,16,04,02,17.20
2010,08,16,04,03,17.20
2010,08,16,04,04,17.20
2010,08,16,04,05,17.10
2010,08,16,04,06,17.10
2010,08,16,04,07,17.10
2010,08,16,04,08,17.10
2010,08,16,04,09,17.10
2010,08,16,04,10,17.10
2010,08,16,04,11,17.00
2010,08,16,04,12,17.00
2010,08,16,04,13,17.00
2010,08,16,04,14,17.00
2010,08,16,04,15,17.00
2010,08,16,04,16,17.00
2010,08,16,04,17,16.90
2010,08,16,04,18,16.90
2010,08,16,04,19,16.90
2010,08,16,04,20,16.90
2010,08,16,04,21,16.90
2010,08,16,04,22,16.90
2010,08,16,04,23,16.80
2010,08,16,04,24,16.80
2010,08,16,04,25,16.80
2010,08,16,04,26,16.80
2010,08,16,04,27,16.80
2010,08,16,04,28,16.70
2010,08,16,04,29,16.70
2010,08,16,04,30,16.70
2010,08,16,04,31,16.70
2010,08,16,04,32,16.70
2010,08,16,04,33,16.70
2010,08,16,04,34,16.70
2010,08,16,04,35,16.60
2010,08,16,04,36,16.60
2010,08,16,04,37,16.60
2010,08,16,04,38,16.60
2010,08,16,04,39,16.60
2010,08,16,04,40,16.60
2010,08,16,04,41,16.60
2010,08,16,04,42,16.60
2010,08,16,04,43,16.50
2010,08,16,04,44,16.50
2010,08,16,04,45,16.50
2010,08,16,04,46,16.50
2010,08,16,04,47,16.50
2010,08,16,04,48,16.40
2010,08,16,04,49,16.40
2010,08,16,04,50,16.40
2010,08,16,04,51,16.40
2010,08,16,04,52,16.30
2010,08,16,04,53,16.30
2010,08,16,04,54,16.30
2010,08,16,04,55,16.30
2010,08,16,04,56,16.20
2010,08,16,04,57,16.20
2010,08,16,04,58,16.20
2010,08,16,04,59,16.20
2010,08,16,05,00,16.20
2010,08,16,05,01,16.20
2010,08,16,05,02,16.20
2010,08,16,05,03,16.10
2010,08,16,05,04,16.10
2010,08,16,05,05,16.10
2010,08,16,05,06,16.10
2010,08,16,05,07,16.10
2010,08,16,05,08,16.10
2010,08,16,05,09,16.10
2010,08,16,05,10,16.10
2010,08,16,05,11,16.10
2010,08,16,05,12,16.10
2010,08,16,05,13,16.10
2010,08,16,05,14,16.10
2010,08,16,05,15,16.10
2010,08,16,05,16,16.10
2010,08,16,05,17,16.10
2010,08,16,05,18,16.10
2010,08,16,05,19,16.10
2010,08,16,05,20,16.10
2010,08,16,05,21,16.00
2010,08,16,05,22,16.00
2010,08,16,05,23,16.00
2010,08,16,05,24,16.00
2010,08,16,05,25,16.00
2010,08,16,05,26,15.90
2010,08,16,05,27,15.90
2010,08,16,05,28,15.90
2010,08,16,05,29,15.90
2010,08,16,05,30,15.90
2010,08,16,05,31,15.90
2010,08,16,05,32,15.90
2010,08,16,05,33,15.80
2010,08,16,05,34,15.80
2010,08,16,05,35,15.80
2010,08,16,05,36,15.90
2010,08,16,05,37,15.90
2010,08,16,05,38,15.90
2010,08,16,05,39,15.90
2010,08,16,05,40,15.90
2010,08,16,05,41,15.90
2010,08,16,05,42,15.90
2010,08,16,05,43,15.90
2010,08,16,05,44,15.90
2010,08,16,05,45,15.90
2010,08,16,05,46,15.90
2010,08,16,05,47,15.90
2010,08,16,05,48,15.90
2010,08,16,05,49,15.90
2010,08,16,05,50,15.90
2010,08,16,05,51,15.90
2010,08,16,05,52,15.90
2010,08,16,05,53,15.90
2010,08,16,05,54,15.90
2010,08,16,05,55,15.90
2010,08,16,05,56,15.90
2010,08,16,05,57,15.90
2010,08,16,05,58,15.90
2010,08,16,05,59,15.80
2010,08,16,06,00,15.80
2010,08,16,06,01,15.80
2010,08,16,06,02,15.80
2010,08,16,06,03,15.80
2010,08,16,06,04,15.80
2010,08,16,06,05,15.80
2010,08,16,06,06,15.80
2010,08,16,06,07,15.70
2010,08,16,06,08,15.70
2010,08,16,06,09,15.70
2010,08,16,06,10,15.70
2010,08,16,06,11,15.70
2010,08,16,06,12,15.70
2010,08,16,06,13,15.70
2010,08,16,06,14,15.80
2010,08,16,06,15,15.80
2010,08,16,06,16,15.80
2010,08,16,06,17,15.80
2010,08,16,06,18,15.80
2010,08,16,06,19,15.80
2010,08,16,06,20,15.70
2010,08,16,06,21,15.70
2010,08,16,06,22,15.70
2010,08,16,06,23,15.70
2010,08,16,06,24,15.70
2010,08,16,06,25,15.70
2010,08,16,06,26,15.70
2010,08,16,06,27,15.70
2010,08,16,06,28,15.70
2010,08,16,06,29,15.70
2010,08,16,06,30,15.70
2010,08,16,06,31,15.70
2010,08,16,06,32,15.70
2010,08,16,06,33,15.60
2010,08,16,06,34,15.60
2010,08,16,06,35,15.60
2010,08,16,06,36,15.60
2010,08,16,06,37,15.60
2010,08,16,06,38,15.60
2010,08,16,06,39,15.60
2010,08,16,06,40,15.60
2010,08,16,06,41,15.60
2010,08,16,06,42,15.60
2010,08,16,06,43,15.60
2010,08,16,06,44,15.50
2010,08,16,06,45,15.50
2010,08,16,06,46,15.50
2010,08,16,06,47,15.50
2010,08,16,06,48,15.50
2010,08,16,06,49,15.50
2010,08,16,06,50,15.40
2010,08,16,06,51,15.40
2010,08,16,06,52,15.40
2010,08,16,06,53,15.40
2010,08,16,06,54,15.40
2010,08,16,06,55,15.40
2010,08,16,06,56,15.30
2010,08,16,06,57,15.30
2010,08,16,06,58,15.30
2010,08,16,06,59,15.30
2010,08,16,07,00,15.40
2010,08,16,07,01,15.40
2010,08,16,07,02,15.30
2010,08,16,07,03,15.40
2010,08,16,07,04,15.40
2010,08,16,07,05,15.40
2010,08,16,07,06,15.40
2010,08,16,07,07,15.40
2010,08,16,07,08,15.40
2010,08,16,07,09,15.40
2010,08,16,07,10,15.40
2010,08,16,07,11,15.50
2010,08,16,07,12,15.50
2010,08,16,07,13,15.60
2010,08,16,07,14,15.60
2010,08,16,07,15,15.60
2010,08,16,07,16,15.70
2010,08,16,07,17,15.70
2010,08,16,07,18,15.70
2010,08,16,07,19,15.70
2010,08,16,07,20,15.70
2010,08,16,07,21,15.70
2010,08,16,07,22,15.80
2010,08,16,07,23,15.80
2010,08,16,07,24,15.80
2010,08,16,07,25,15.80
2010,08,16,07,26,15.90
2010,08,16,07,27,15.90
2010,08,16,07,28,16.00
2010,08,16,07,29,16.00
2010,08,16,07,30,16.10
2010,08,16,07,31,16.20
2010,08,16,07,32,16.30
2010,08,16,07,33,16.40
2010,08,16,07,34,16.40
2010,08,16,07,35,16.50
2010,08,16,07,36,16.60
2010,08,16,07,37,16.70
2010,08,16,07,38,16.80
2010,08,16,07,39,16.90
2010,08,16,07,40,17.00
2010,08,16,07,41,17.00
2010,08,16,07,42,17.10
2010,08,16,07,43,17.20
2010,08,16,07,44,17.20
2010,08,16,07,45,17.30
2010,08,16,07,46,17.30
2010,08,16,07,47,17.40
2010,08,16,07,48,17.40
2010,08,16,07,49,17.50
2010,08,16,07,50,17.60
2010,08,16,07,51,17.70
2010,08,16,07,52,17.70
2010,08,16,07,53,17.80
2010,08,16,07,54,17.90
2010,08,16,07,55,17.90
2010,08,16,07,56,18.00
2010,08,16,07,57,18.10
2010,08,16,07,58,18.10
2010,08,16,07,59,18.20
2010,08,16,08,00,18.20
2010,08,16,08,01,18.30
2010,08,16,08,02,18.30
2010,08,16,08,03,18.30
2010,08,16,08,04,18.30
2010,08,16,08,05,18.30
2010,08,16,08,06,18.40
2010,08,16,08,07,18.40
2010,08,16,08,08,18.50
2010,08,16,08,09,18.50
2010,08,16,08,10,18.60
2010,08,16,08,11,18.60
2010,08,16,08,12,18.70
2010,08,16,08,13,18.70
2010,08,16,08,14,18.80
2010,08,16,08,15,18.80
2010,08,16,08,16,18.90
2010,08,16,08,17,18.90
2010,08,16,08,18,18.90
2010,08,16,08,19,18.90
2010,08,16,08,20,19.00
2010,08,16,08,21,19.00
2010,08,16,08,22,19.10
2010,08,16,08,23,19.10
2010,08,16,08,24,19.10
2010,08,16,08,25,19.10
2010,08,16,08,26,19.20
2010,08,16,08,27,19.20
2010,08,16,08,28,19.20
2010,08,16,08,29,19.30
2010,08,16,08,30,19.30
2010,08,16,08,31,19.30
2010,08,16,08,32,19.40
2010,08,16,08,33,19.40
2010,08,16,08,34,19.40
2010,08,16,08,35,19.50
2010,08,16,08,36,19.50
2010,08,16,08,37,19.60
2010,08,16,08,38,19.60
2010,08,16,08,39,19.60
2010,08,16,08,40,19.70
2010,08,16,08,41,19.70
2010,08,16,08,42,19.70
2010,08,16,08,43,19.70
2010,08,16,08,44,19.70
2010,08,16,08,45,19.80
2010,08,16,08,46,19.80
2010,08,16,08,47,19.90
2010,08,16,08,48,20.00
2010,08,16,08,49,20.00
2010,08,16,08,50,20.10
2010,08,16,08,51,20.20
2010,08,16,08,52,20.20
2010,08,16,08,53,20.30
2010,08,16,08,54,20.30
2010,08,16,08,55,20.40
2010,08,16,08,56,20.40
2010,08,16,08,57,20.50
2010,08,16,08,58,20.50
2010,08,16,08,59,20.60
2010,08,16,09,00,20.60
2010,08,16,09,01,20.70
2010,08,16,09,02,20.70
2010,08,16,09,03,20.70
2010,08,16,09,04,20.80
2010,08,16,09,05,20.80
2010,08,16,09,06,20.80
2010,08,16,09,07,20.90
2010,08,16,09,08,20.90
2010,08,16,09,09,21.00
2010,08,16,09,10,21.10
2010,08,16,09,11,21.10
2010,08,16,09,12,21.10
2010,08,16,09,13,21.10
2010,08,16,09,14,21.10
2010,08,16,09,15,21.10
2010,08,16,09,16,21.10
2010,08,16,09,17,21.10
2010,08,16,09,18,21.00
2010,08,16,09,19,21.00
2010,08,16,09,20,21.00
2010,08,16,09,21,21.00
2010,08,16,09,22,21.10
2010,08,16,09,23,21.10
2010,08,16,09,24,21.20
2010,08,16,09,25,21.20
2010,08,16,09,26,21.20
2010,08,16,09,27,21.20
2010,08,16,09,28,21.30
2010,08,16,09,29,21.30
2010,08,16,09,30,21.30
2010,08,16,09,31,21.30
2010,08,16,09,32,21.40
2010,08,16,09,33,21.50
2010,08,16,09,34,21.50
2010,08,16,09,35,21.60
2010,08,16,09,36,21.60
2010,08,16,09,37,21.60
2010,08,16,09,38,21.60
2010,08,16,09,39,21.60
2010,08,16,09,40,21.60
2010,08,16,09,41,21.60
2010,08,16,09,42,21.70
2010,08,16,09,43,21.80
2010,08,16,09,44,21.90
2010,08,16,09,45,21.90
2010,08,16,09,46,22.00
2010,08,16,09,47,22.00
2010,08,16,09,48,22.00
2010,08,16,09,49,22.10
2010,08,16,09,50,22.10
2010,08,16,09,51,22.20
2010,08,16,09,52,22.20
2010,08,16,09,53,22.30
2010,08,16,09,54,22.40
2010,08,16,09,55,22.50
2010,08,16,09,56,22.50
2010,08,16,09,57,22.60
2010,08,16,09,58,22.70
2010,08,16,09,59,22.80
2010,08,16,10,00,22.90
2010,08,16,10,01,22.90
2010,08,16,10,02,23.00
2010,08,16,10,03,23.00
2010,08,16,10,04,23.10
2010,08,16,10,05,23.10
2010,08,16,10,06,23.10
2010,08,16,10,07,23.10
2010,08,16,10,08,23.10
2010,08,16,10,09,23.20
2010,08,16,10,10,23.30
2010,08,16,10,11,23.40
2010,08,16,10,12,23.40
2010,08,16,10,13,23.40
2010,08,16,10,14,23.40
2010,08,16,10,15,23.50
2010,08,16,10,16,23.50
2010,08,16,10,17,23.60
2010,08,16,10,18,23.60
2010,08,16,10,19,23.60
2010,08,16,10,20,23.60
2010,08,16,10,21,23.60
2010,08,16,10,22,23.70
2010,08,16,10,23,23.80
2010,08,16,10,24,23.90
2010,08,16,10,25,24.00
2010,08,16,10,26,24.10
2010,08,16,10,27,24.10
2010,08,16,10,28,24.20
2010,08,16,10,29,24.20
2010,08,16,10,30,24.30
2010,08,16,10,31,24.30
2010,08,16,10,32,24.30
2010,08,16,10,33,24.30
2010,08,16,10,34,24.40
2010,08,16,10,35,24.50
2010,08,16,10,36,24.60
2010,08,16,10,37,24.60
2010,08,16,10,38,24.70
2010,08,16,10,39,24.80
2010,08,16,10,40,24.80
2010,08,16,10,41,24.90
2010,08,16,10,42,24.90
2010,08,16,10,43,25.00
2010,08,16,10,44,25.00
2010,08,16,10,45,25.10
2010,08,16,10,46,25.10
2010,08,16,10,47,25.10
2010,08,16,10,48,25.10
2010,08,16,10,49,25.20
2010,08,16,10,50,25.20
2010,08,16,10,51,25.20
2010,08,16,10,52,25.30
2010,08,16,10,53,25.30
2010,08,16,10,54,25.40
2010,08,16,10,55,25.40
2010,08,16,10,56,25.60
2010,08,16,10,57,25.70
2010,08,16,10,58,25.70
2010,08,16,10,59,25.80
2010,08,16,11,00,25.90
2010,08,16,11,01,25.90
2010,08,16,11,02,26.00
2010,08,16,11,03,26.10
2010,08,16,11,04,26.30
2010,08,16,11,05,26.40
2010,08,16,11,06,26.50
2010,08,16,11,07,26.60
2010,08,16,11,08,26.70
2010,08,16,11,09,26.70
2010,08,16,11,10,26.70
2010,08,16,11,11,26.60
2010,08,16,11,12,26.60
2010,08,16,11,13,26.60
2010,08,16,11,14,26.50
2010,08,16,11,15,26.60
2010,08,16,11,16,26.60
2010,08,16,11,17,26.60
2010,08,16,11,18,26.60
2010,08,16,11,19,26.60
2010,08,16,11,20,26.70
2010,08,16,11,21,26.70
2010,08,16,11,22,26.70
2010,08,16,11,23,26.60
2010,08,16,11,24,26.60
2010,08,16,11,25,26.60
2010,08,16,11,26,26.60
2010,08,16,11,27,26.70
2010,08,16,11,28,26.70
2010,08,16,11,29,26.70
2010,08,16,11,30,26.70
2010,08,16,11,31,26.70
2010,08,16,11,32,26.70
2010,08,16,11,33,26.80
2010,08,16,11,34,26.80
2010,08,16,11,35,26.80
2010,08,16,11,36,26.80
2010,08,16,11,37,26.90
2010,08,16,11,38,26.90
2010,08,16,11,39,27.00
2010,08,16,11,40,27.10
2010,08,16,11,41,27.10
2010,08,16,11,42,27.20
2010,08,16,11,43,27.20
2010,08,16,11,44,27.20
2010,08,16,11,45,27.30
2010,08,16,11,46,27.30
2010,08,16,11,47,27.40
2010,08,16,11,48,27.50
2010,08,16,11,49,27.60
2010,08,16,11,50,27.70
2010,08,16,11,51,27.80
2010,08,16,11,52,27.90
2010,08,16,11,53,28.00
2010,08,16,11,54,28.10
2010,08,16,11,55,28.10
2010,08,16,11,56,28.10
2010,08,16,11,57,28.10
2010,08,16,11,58,28.10
2010,08,16,11,59,28.10
2010,08,16,12,00,28.10
2010,08,16,12,01,28.10
2010,08,16,12,02,28.20
2010,08,16,12,03,28.30
2010,08,16,12,04,28.40
2010,08,16,12,05,28.50
2010,08,16,12,06,28.50
2010,08,16,12,07,28.60
2010,08,16,12,08,28.70
2010,08,16,12,09,28.80
2010,08,16,12,10,28.80
2010,08,16,12,11,28.90
2010,08,16,12,12,28.90
2010,08,16,12,13,29.00
2010,08,16,12,14,29.10
2010,08,16,12,15,29.20
2010,08,16,12,16,29.30
2010,08,16,12,17,29.40
2010,08,16,12,18,29.50
2010,08,16,12,19,29.70
2010,08,16,12,20,29.80
2010,08,16,12,21,29.80
2010,08,16,12,22,29.80
2010,08,16,12,23,29.80
2010,08,16,12,24,29.80
2010,08,16,12,25,29.80
2010,08,16,12,26,29.90
2010,08,16,12,27,29.90
2010,08,16,12,28,30.00
2010,08,16,12,29,30.10
2010,08,16,12,30,30.20
2010,08,16,12,31,30.30
2010,08,16,12,32,30.40
2010,08,16,12,33,30.40
2010,08,16,12,34,30.40
2010,08,16,12,35,30.40
2010,08,16,12,36,30.50
2010,08,16,12,37,30.50
2010,08,16,12,38,30.60
2010,08,16,12,39,30.70
2010,08,16,12,40,30.70
2010,08,16,12,41,30.80
2010,08,16,12,42,30.80
2010,08,16,12,43,30.70
2010,08,16,12,44,30.70
2010,08,16,12,45,30.70
2010,08,16,12,46,30.70
2010,08,16,12,47,30.80
2010,08,16,12,48,30.80
2010,08,16,12,49,30.90
2010,08,16,12,50,31.10
2010,08,16,12,51,31.20
2010,08,16,12,52,31.30
2010,08,16,12,53,31.40
2010,08,16,12,54,31.50
2010,08,16,12,55,31.60
2010,08,16,12,56,31.60
2010,08,16,12,57,31.60
2010,08,16,12,58,31.60
2010,08,16,12,59,31.60
2010,08,16,13,00,31.70
2010,08,16,13,01,31.70
2010,08,16,13,02,31.70
2010,08,16,13,03,31.70
2010,08,16,13,04,31.80
2010,08,16,13,05,31.90
2010,08,16,13,06,31.90
2010,08,16,13,07,31.90
2010,08,16,13,08,32.00
2010,08,16,13,09,32.10
2010,08,16,13,10,32.00
2010,08,16,13,11,32.00
2010,08,16,13,12,32.00
2010,08,16,13,13,32.00
2010,08,16,13,14,32.10
2010,08,16,13,15,32.10
2010,08,16,13,16,32.10
2010,08,16,13,17,32.20
2010,08,16,13,18,32.20
2010,08,16,13,19,32.30
2010,08,16,13,20,32.30
2010,08,16,13,21,32.30
2010,08,16,13,22,32.30
2010,08,16,13,23,32.30
2010,08,16,13,24,32.30
2010,08,16,13,25,32.40
2010,08,16,13,26,32.40
2010,08,16,13,27,32.40
2010,08,16,13,28,32.40
2010,08,16,13,29,32.30
2010,08,16,13,30,32.40
2010,08,16,13,31,32.50
2010,08,16,13,32,32.50
2010,08,16,13,33,32.60
2010,08,16,13,34,32.50
2010,08,16,13,35,32.40
2010,08,16,13,36,32.30
2010,08,16,13,37,32.30
2010,08,16,13,38,32.40
2010,08,16,13,39,32.40
2010,08,16,13,40,32.40
2010,08,16,13,41,32.40
2010,08,16,13,42,32.50
2010,08,16,13,43,32.50
2010,08,16,13,44,32.50
2010,08,16,13,45,32.50
2010,08,16,13,46,32.60
2010,08,16,13,47,32.60
2010,08,16,13,48,32.60
2010,08,16,13,49,32.60
2010,08,16,13,50,32.60
2010,08,16,13,51,32.70
2010,08,16,13,52,32.60
2010,08,16,13,53,32.60
2010,08,16,13,54,32.60
2010,08,16,13,55,32.50
2010,08,16,13,56,32.40
2010,08,16,13,57,32.40
2010,08,16,13,58,32.40
2010,08,16,13,59,32.50
2010,08,16,14,00,32.50
2010,08,16,14,01,32.60
2010,08,16,14,02,32.60
2010,08,16,14,03,32.60
2010,08,16,14,04,32.70
2010,08,16,14,05,32.80
2010,08,16,14,06,32.90
2010,08,16,14,07,33.00
2010,08,16,14,08,33.10
2010,08,16,14,09,33.30
2010,08,16,14,10,33.40
2010,08,16,14,11,33.50
2010,08,16,14,12,33.60
2010,08,16,14,13,33.60
2010,08,16,14,14,33.60
2010,08,16,14,15,33.70
2010,08,16,14,16,33.70
2010,08,16,14,17,33.70
2010,08,16,14,18,33.70
2010,08,16,14,19,33.70
2010,08,16,14,20,33.70
2010,08,16,14,21,33.70
2010,08,16,14,22,33.80
2010,08,16,14,23,33.90
2010,08,16,14,24,34.00
2010,08,16,14,25,34.10
2010,08,16,14,26,34.10
2010,08,16,14,27,34.10
2010,08,16,14,28,34.10
2010,08,16,14,29,34.10
2010,08,16,14,30,34.10
2010,08,16,14,31,34.10
2010,08,16,14,32,34.20
2010,08,16,14,33,34.20
2010,08,16,14,34,34.20
2010,08,16,14,35,34.20
2010,08,16,14,36,34.30
2010,08,16,14,37,34.30
2010,08,16,14,38,34.30
2010,08,16,14,39,34.40
2010,08,16,14,40,34.40
2010,08,16,14,41,34.30
2010,08,16,14,42,34.30
2010,08,16,14,43,34.40
2010,08,16,14,44,34.40
2010,08,16,14,45,34.40
2010,08,16,14,46,34.40
2010,08,16,14,47,34.40
2010,08,16,14,48,34.50
2010,08,16,14,49,34.50
2010,08,16,14,50,34.50
2010,08,16,14,51,34.60
2010,08,16,14,52,34.60
2010,08,16,14,53,34.60
2010,08,16,14,54,34.60
2010,08,16,14,55,34.70
2010,08,16,14,56,34.70
2010,08,16,14,57,34.70
2010,08,16,14,58,34.80
2010,08,16,14,59,34.80
2010,08,16,15,00,34.80
2010,08,16,15,01,34.80
2010,08,16,15,02,34.90
2010,08,16,15,03,35.00
2010,08,16,15,04,35.10
2010,08,16,15,05,35.10
2010,08,16,15,06,35.20
2010,08,16,15,07,35.30
2010,08,16,15,08,35.30
2010,08,16,15,09,35.40
2010,08,16,15,10,35.40
2010,08,16,15,11,35.40
2010,08,16,15,12,35.40
2010,08,16,15,13,35.50
2010,08,16,15,14,35.60
2010,08,16,15,15,35.70
2010,08,16,15,16,35.80
2010,08,16,15,17,35.80
2010,08,16,15,18,35.90
2010,08,16,15,19,35.90
2010,08,16,15,20,36.00
2010,08,16,15,21,36.00
2010,08,16,15,22,36.10
2010,08,16,15,23,36.10
2010,08,16,15,24,36.10
2010,08,16,15,25,36.00
2010,08,16,15,26,36.00
2010,08,16,15,27,35.90
2010,08,16,15,28,36.00
2010,08,16,15,29,36.00
2010,08,16,15,30,36.10
2010,08,16,15,31,36.20
2010,08,16,15,32,36.20
2010,08,16,15,33,36.20
2010,08,16,15,34,36.20
2010,08,16,15,35,36.20
2010,08,16,15,36,36.20
2010,08,16,15,37,36.30
2010,08,16,15,38,36.40
2010,08,16,15,39,36.40
2010,08,16,15,40,36.50
2010,08,16,15,41,36.50
2010,08,16,15,42,36.50
2010,08,16,15,43,36.40
2010,08,16,15,44,36.30
2010,08,16,15,45,36.20
2010,08,16,15,46,36.10
2010,08,16,15,47,36.10
2010,08,16,15,48,36.10
2010,08,16,15,49,36.10
2010,08,16,15,50,36.00
2010,08,16,15,51,36.00
2010,08,16,15,52,35.90
2010,08,16,15,53,35.90
2010,08,16,15,54,36.00
2010,08,16,15,55,36.10
2010,08,16,15,56,36.20
2010,08,16,15,57,36.20
2010,08,16,15,58,36.20
2010,08,16,15,59,36.30
2010,08,16,16,00,36.30
2010,08,16,16,01,36.30
2010,08,16,16,02,36.20
2010,08,16,16,03,36.10
2010,08,16,16,04,36.00
2010,08,16,16,05,35.90
2010,08,16,16,06,35.80
2010,08,16,16,07,35.70
2010,08,16,16,08,35.70
2010,08,16,16,09,35.70
2010,08,16,16,10,35.70
2010,08,16,16,11,35.70
2010,08,16,16,12,35.70
2010,08,16,16,13,35.80
2010,08,16,16,14,35.80
2010,08,16,16,15,35.80
2010,08,16,16,16,35.70
2010,08,16,16,17,35.70
2010,08,16,16,18,35.70
2010,08,16,16,19,35.60
2010,08,16,16,20,35.60
2010,08,16,16,21,35.60
2010,08,16,16,22,35.60
2010,08,16,16,23,35.60
2010,08,16,16,24,35.50
2010,08,16,16,25,35.50
2010,08,16,16,26,35.40
2010,08,16,16,27,35.40
2010,08,16,16,28,35.40
2010,08,16,16,29,35.40
2010,08,16,16,30,35.30
2010,08,16,16,31,35.30
2010,08,16,16,32,35.30
2010,08,16,16,33,35.30
2010,08,16,16,34,35.30
2010,08,16,16,35,35.40
2010,08,16,16,36,35.40
2010,08,16,16,37,35.40
2010,08,16,16,38,35.50
2010,08,16,16,39,35.50
2010,08,16,16,40,35.60
2010,08,16,16,41,35.60
2010,08,16,16,42,35.60
2010,08,16,16,43,35.60
2010,08,16,16,44,35.60
2010,08,16,16,45,35.60
2010,08,16,16,46,35.60
2010,08,16,16,47,35.60
2010,08,16,16,48,35.60
2010,08,16,16,49,35.60
2010,08,16,16,50,35.60
2010,08,16,16,51,35.50
2010,08,16,16,52,35.50
2010,08,16,16,53,35.50
2010,08,16,16,54,35.50
2010,08,16,16,55,35.50
2010,08,16,16,56,35.60
2010,08,16,16,57,35.60
2010,08,16,16,58,35.70
2010,08,16,16,59,35.70
2010,08,16,17,00,35.60
2010,08,16,17,01,35.60
2010,08,16,17,02,35.60
2010,08,16,17,03,35.60
2010,08,16,17,04,35.60
2010,08,16,17,05,35.50
2010,08,16,17,06,35.30
2010,08,16,17,07,35.20
2010,08,16,17,08,35.10
2010,08,16,17,09,35.00
2010,08,16,17,10,34.80
2010,08,16,17,11,34.70
2010,08,16,17,12,34.70
2010,08,16,17,13,34.60
2010,08,16,17,14,34.40
2010,08,16,17,15,34.30
2010,08,16,17,16,34.20
2010,08,16,17,17,34.10
2010,08,16,17,18,34.00
2010,08,16,17,19,33.90